TimeMDT,TemperatureF,Dew PointF,Humidity,Sea Level PressureIn,VisibilityMPH,Wind Direction,Wind SpeedMPH,Gust SpeedMPH,PrecipitationIn,Events,Conditions,WindDirDegrees,DateUTC
12:53 AM,44.1,28.9,55,30.08,10.0,Calm,Calm,-,N/A,,Clear,0,2013-08-17 06:53:00
1:53 AM,45.0,28.0,52,30.06,10.0,Calm,Calm,-,N/A,,Clear,0,2013-08-17 07:53:00
2:53 AM,39.9,28.0,63,30.09,10.0,ENE,6.9,-,N/A,,Clear,60,2013-08-17 08:53:00
3:53 AM,42.1,28.0,58,30.06,10.0,NNE,3.5,-,N/A,,Mostly Cloudy,20,2013-08-17 09:53:00
4:53 AM,41.0,28.0,60,30.06,10.0,NE,3.5,-,N/A,,Mostly Cloudy,40,2013-08-17 10:53:00
5:53 AM,43.0,28.9,58,30.05,10.0,Calm,Calm,-,N/A,,Mostly Cloudy,0,2013-08-17 11:53:00
6:53 AM,42.1,30.9,65,30.09,10.0,NE,4.6,-,N/A,,Partly Cloudy,40,2013-08-17 12:53:00
7:53 AM,48.0,33.1,56,30.10,10.0,Calm,Calm,-,N/A,,Clear,0,2013-08-17 13:53:00
8:53 AM,55.9,30.9,39,30.09,10.0,Calm,Calm,-,N/A,,Mostly Cloudy,0,2013-08-17 14:53:00
9:53 AM,62.1,33.1,34,30.05,10.0,Variable,3.5,-,N/A,,Mostly Cloudy,0,2013-08-17 15:53:00
10:53 AM,66.9,23.0,19,30.03,10.0,Calm,Calm,-,N/A,,Mostly Cloudy,0,2013-08-17 16:53:00
11:53 AM,66.0,24.1,20,30.08,10.0,NW,6.9,16.1,N/A,,Overcast,310,2013-08-17 17:53:00
12:53 PM,72.0,21.9,15,30.02,10.0,NW,8.1,20.7,N/A,,Mostly Cloudy,320,2013-08-17 18:53:00
1:53 PM,68.0,19.9,16,30.02,10.0,Calm,Calm,-,N/A,,Scattered Clouds,0,2013-08-17 19:53:00
2:53 PM,73.0,19.9,14,30.00,10.0,NNW,10.4,-,N/A,,Partly Cloudy,340,2013-08-17 20:53:00
3:53 PM,70.0,21.0,16,29.99,10.0,NE,5.8,-,N/A,,Scattered Clouds,40,2013-08-17 21:53:00
4:53 PM,70.0,23.0,17,29.99,10.0,NNW,9.2,-,N/A,,Mostly Cloudy,340,2013-08-17 22:53:00
5:53 PM,69.1,21.0,16,29.98,10.0,North,6.9,-,N/A,,Partly Cloudy,360,2013-08-17 23:53:00
6:53 PM,68.0,24.1,19,29.99,10.0,North,9.2,-,N/A,,Clear,360,2013-08-18 00:53:00
7:53 PM,62.1,26.1,25,30.00,10.0,Calm,Calm,-,N/A,,Clear,0,2013-08-18 01:53:00
8:53 PM,55.9,28.9,36,29.99,10.0,ENE,6.9,-,N/A,,Clear,60,2013-08-18 02:53:00
9:53 PM,55.9,30.0,37,29.98,10.0,ENE,5.8,-,N/A,,Mostly Cloudy,60,2013-08-18 03:53:00
10:53 PM,55.9,28.0,34,29.94,10.0,East,3.5,-,N/A,,Clear,80,2013-08-18 04:53:00
11:53 PM,51.1,30.9,46,29.99,10.0,Calm,Calm,-,N/A,,Mostly Cloudy,0,2013-08-18 05:53:00